Location: B�hl
(48.6968°N, 8.1352°E)
Time: 21:27:08
(UTC+00:00)

USA 281 - Pass Details

Date: 08 March 2021
Orbit: 1076 x 1083 km, 106.0° (Epoch: 13 April)

Event Time Altitude Azimuth Distance (km) Brightness Sun altitude
Exits shadow 20:54:05 34° 27° (NNE) 1,692 4.2 -33.8°
Drops below altitude 10° 20:58:47 10° 345° (NNW) 2,929 6.0 -34.4°
Sets 21:01:29 0° 338° (NNW) 3,889 6.9 -34.7°
